Zurück zum Katalog

STARLINK-31679

AktivKommunikationVLEO
NORAD 59519·PAYLOAD·🇺🇸 United States

Gestartet Apr 17, 2024 von Cape Canaveral Space Force Station

Loading…

Nächste Überflüge (nächste 24 Stunden)

TLE

AktuellSource: CelesTrak SupGP

Epoche: Sep 14, 2026, 20:37 UTC

1 59519C 24073J   26257.85951389 -.00030587  00000+0 -11079-2 0  2576
2 59519  43.0032 319.1134 0001469 274.7781 273.2357 15.27590718    16

Verfolge STARLINK-31679 in Echtzeit mit AllMySat

Download on the App Store